Location: Celcikli
(36.4852°N, 30.5218°E)
Time: 23:12:30
(UTC+00:00)

Daily predictions for brighter satellites

Satellite Brightness Start Highest point End
(mag) Time Altitude Azimuth Time Altitude Azimuth Time Altitude Azimuth
USA 234 3.8 15:00:52 10° E 15:06:47 37° NNE 15:12:40 10° NNW
Cosmos 1697 Rocket 3.1 15:02:14 10° N 15:07:33 42° ENE 15:12:50 10° SE
Cosmos 1980 Rocket 3.2 15:07:10 10° N 15:11:39 23° ENE 15:16:05 10° ESE
Cosmos 2221 4.3 15:08:07 10° SW 15:11:59 33° WNW 15:15:53 10° NNW
Cosmos 2369 4.4 15:08:28 10° N 15:13:31 31° ENE 15:18:32 10° ESE
CZ-4C R/B 4.0 15:08:21 10° N 15:14:10 24° NE 15:20:38 10° E
NOSS 3-1 (A) 4.2 15:06:45 10° NNW 15:14:31 65° NE 15:23:23 10° SE
NOSS 3-1 (C) 4.4 15:06:47 10° NNW 15:14:42 84° WSW 15:23:44 10° SSE
Sich 1 3.7 15:11:54 10° NNE 15:15:48 33° ENE 15:19:42 10° SE
Cosmos 1092 Rocket 4.1 15:10:05 10° N 15:16:21 58° E 15:22:31 10° SSE
Cosmos 1805 Rocket 3.8 15:13:28 10° N 15:17:39 46° E 15:21:48 10° SSE
Cosmos 2082 Rocket 2.3 15:15:46 10° S 15:21:21 61° ESE 15:26:56 10° NNE
Cosmos 1812 3.5 15:19:12 10° SSE 15:22:34 30° E 15:25:57 10° NNE
CORIOLIS 4.2 15:18:41 10° SSE 15:23:59 64° ENE 15:29:21 10° N
SMAP 3.0 15:19:30 10° SSE 15:24:08 74° ENE 15:28:46 10° N
Meteor 1-25 Rocket 4.2 15:18:43 10° N 15:24:18 74° E 15:29:55 10° SSE
Cosmos 2084 3.5 15:20:29 10° NNW 15:24:50 67° NE 15:29:21 10° SE
Cosmos 1939 Rocket 3.0 15:23:51 10° SSE 15:27:58 87° WSW 15:32:06 10° NNW
CZ-4B DEB 4.2 15:24:28 10° SSE 15:29:54 61° ENE 15:35:19 10° N
ISS -1.6 15:29:25 10° N 15:31:00 13° NNE 15:31:59 12° NE
Cosmos 1627 Rocket 4.4 15:31:34 10° N 15:37:44 73° E 15:43:48 10° SSE
Cosmos 2279 Rocket 4.1 15:32:21 10° SSE 15:38:19 51° E 15:44:18 10° NNE
Cosmos 540 Rocket 4.0 15:33:27 10° SSW 15:38:27 60° WNW 15:43:31 10° N
AQUARIUS 4.1 15:34:13 10° SSE 15:38:42 89° E 15:43:13 10° NNW
ARGOS 3.8 15:35:57 10° SE 15:40:40 32° ENE 15:45:23 10° N
COSMOS 2406 4.0 15:36:20 10° SW 15:41:55 52° WNW 15:47:31 10° NNE
Cosmos 1570 Rocket 4.1 15:37:24 10° S 15:42:30 54° ESE 15:47:36 10° NNE
Cosmos 1833 Rocket 4.0 15:38:32 10° SW 15:43:42 38° WNW 15:48:55 10° N
Cosmos 1602 3.9 15:40:56 10° N 15:44:47 77° W 15:48:39 10° S
Cosmos 1814 Rocket 3.9 15:42:19 10° S 15:47:32 72° ESE 15:52:43 10° NNE
Meteor 2-21 4.3 15:43:12 10° N 15:49:18 79° E 15:55:19 10° S
ATLAS CENTAUR R/B 4.5 15:40:10 10° WSW 15:50:08 35° NW 15:54:40 10° NNE
Cosmos 1782 3.5 15:47:08 10° SSW 15:51:04 57° W 15:55:00 10° N
COSMO-SKYMED 1 2.6 15:47:26 10° NNE 15:51:44 59° E 15:55:59 10° S
Cosmos 921 Rocket 3.7 15:50:39 10° SSE 15:54:20 31° E 15:55:52 24° ENE
Cosmos 1634 Rocket 4.3 15:48:52 10° SSW 15:55:09 71° W 16:01:29 10° N
Meteor 2-6 Rocket 4.4 15:50:01 10° S 15:55:38 53° E 16:01:08 10° NNE
COSMOS 2455 3.6 15:52:22 10° SW 15:58:12 53° WNW 16:04:07 10° NNE
CZ-2C R/B 2.5 15:55:36 10° SW 15:59:23 32° SSE 16:01:16 21° ESE
PAYLOAD B 4.2 15:53:53 10° SSE 15:59:29 87° ENE 16:05:07 10° NNW
Helios 1B 4.5 15:55:48 10° NNE 16:00:08 73° ESE 16:04:27 10° S
Cosmos 1633 Rocket 3.2 15:56:40 10° N 16:00:53 47° E 16:05:07 10° SSE
SJ-11-01 4.5 15:56:51 10° SE 16:01:24 47° ENE 16:05:56 10° N
Cosmos 1898 Rocket 4.4 15:56:48 10° NNW 16:01:52 51° WSW 16:06:52 10° S
CZ-2D R/B 3.4 15:58:16 10° S 16:02:06 75° W 16:05:56 10° NNW
CZ-4B R/B 3.1 15:57:01 10° SSE 16:02:23 63° ENE 16:07:40 10° N
APEX 4.0 15:59:14 10° S 16:03:03 30° ESE 16:03:29 29° E
Cosmos 2026 Rocket 4.3 16:00:34 10° NNW 16:06:37 67° W 16:12:36 10° S
CZ-2C R/B 2.5 16:01:45 10° NNE 16:06:58 86° ESE 16:12:08 10° SSW
Cosmos 1151 Rocket 3.1 16:04:28 10° S 16:08:45 76° W 16:13:06 10° N
Okean O Rocket 1.6 16:06:35 10° SSE 16:10:56 57° ENE 16:15:19 10° N
Meteor 2-15 4.4 16:05:13 10° S 16:11:11 58° E 16:17:09 10° NNE
BREEZE M DEB (TANK) 4.4 15:50:40 10° NW 16:11:23 87° SW 16:16:13 12° SE
Cosmos 1500 4.1 16:10:59 10° NNW 16:14:35 48° W 16:18:09 10° SSW
Cosmos 2208 Rocket 4.0 16:11:01 10° SSW 16:16:23 90° N 16:21:06 14° NNE
Lacrosse 5 rocket 3.7 16:14:52 10° N 16:15:00 10° N 16:15:00 10° N
DEBRIS 2.4 16:14:44 10° SW 16:16:55 55° SE 16:17:09 53° ESE
Cosmos 1867 4.5 16:12:26 10° SSE 16:17:00 28° ESE 16:17:10 28° ESE
Meteor 1-10 Rocket 4.3 16:11:32 10° S 16:17:14 59° E 16:22:19 13° NNE
X-37B 1.7 16:16:58 10° SSW 16:18:58 30° S 16:18:58 30° S
H-2A R/B 2.5 16:14:39 10° S 16:19:49 64° WSW 16:24:53 10° NNW
CZ-4 R/B 4.3 16:17:12 10° SSE 16:21:18 72° ENE 16:25:25 10° N
Meteor 1-11 Rocket 4.3 16:18:21 10° N 16:27:29 16° SE 16:28:46 10° SE
Cosmos 1655 Rocket 4.1 16:18:11 10° N 16:24:25 52° E 16:30:33 10° SSE
Cosmos 1328 Rocket 3.8 16:21:38 10° SSW 16:26:03 70° W 16:30:23 11° N
GPS 2-04 Rocket1 3.0 16:22:27 10° W 16:26:32 63° SSW 16:27:26 48° SE
Cosmos 1666 Rocket 3.9 16:22:14 10° NNW 16:26:39 67° W 16:30:59 10° S
CZ-4C R/B 2.7 16:26:52 77° SSE 16:26:52 77° SSE 16:30:02 10° S
Cosmos 1470 Rocket 3.5 16:25:31 10° N 16:29:55 58° E 16:34:19 10° SSE
USA 32 4.1 16:25:45 10° SSE 16:30:45 48° E 16:31:12 47° ENE
Feng Yun 1-1 Rocket 4.3 16:25:13 10° SSE 16:31:01 59° ENE 16:36:47 10° N
USA 276 4.2 16:31:43 10° WNW 16:34:22 25° SW 16:35:35 19° S
Landsat 5 3.9 16:32:08 20° N 16:34:48 59° WNW 16:38:40 10° SSW
Cosmos 1666 4.0 16:40:34 10° NNW 16:44:02 38° W 16:47:28 10° SSW
SL-24 R/B - RUBIN 2 4.1 16:43:38 10° NW 16:47:56 56° WSW 16:50:00 28° S
USA 234 3.6 16:43:03 10° SSE 16:49:31 63° SW 16:56:00 10° NW
Cosmos 2322 Rocket 4.2 16:44:55 10° N 16:45:58 15° N 16:45:58 15° N
SL-08 RB Rocket 3.9 16:48:54 10° S 16:53:31 70° W 16:58:08 10° NNW
NOSS 3-3 (A) 4.3 16:49:50 10° S 16:53:53 42° SSE 16:53:53 42° SSE
NOSS 3-3 (C) 4.3 16:49:56 10° S 16:53:57 41° SSE 16:53:57 41° SSE
Cosmos 1980 Rocket 3.2 16:50:29 10° NW 16:55:49 45° WSW 17:01:07 10° S
H-2A R/B 4.2 17:00:19 18° S 17:00:19 18° S 17:01:30 10° S
CZ-4C R/B 3.0 16:55:53 10° NNW 17:03:34 87° WSW 17:11:19 14° SSE
SL-16 R/B 3.7 17:02:04 10° NNW 17:04:15 23° N 17:04:15 23° N
ISS -0.6 17:04:58 10° NW 17:04:59 10° NW 17:04:59 10° NW
Meteor 1-27 Rocket 4.2 17:18:42 10° SSW 17:24:07 56° W 17:24:11 56° WNW
CZ-2C R/B 4.1 17:34:35 10° WSW 17:35:26 15° WSW 17:35:26 15° WSW
ATLAS 3B CENTAUR R/B 4.4 17:54:54 10° W 18:13:25 60° S 18:14:38 59° S
